Location: Gleizolles
(44.4833°N, 6.7667°E)
Time: 16:22:33
(UTC+00:00)

Cosmos 2360 Rocket - Pass Details

Date: 09 April 2020
Orbit: 833 x 845 km, 71.0° (Epoch: 04 June)

Event Time Altitude Azimuth Distance (km) Brightness Sun altitude
Rises 23:13:36 0° 337° (NNW) 3,393 6.2 -37.3°
Reaches altitude 10° 23:16:06 10° 341° (NNW) 2,456 5.3 -37.3°
Enters shadow 23:19:03 31° 353° (N) 1,430 3.8 -37.4°
